EDT,Max TemperatureF,Mean TemperatureF,Min TemperatureF,Max Dew PointF,MeanDew PointF,Min DewpointF,Max Humidity, Mean Humidity, Min Humidity, Max Sea Level PressureIn, Mean Sea Level PressureIn, Min Sea Level PressureIn, Max VisibilityMiles, Mean VisibilityMiles, Min VisibilityMiles, Max Wind SpeedMPH, Mean Wind SpeedMPH, Max Gust SpeedMPH,PrecipitationIn, CloudCover, Events, WindDirDegrees
2012-10-1,67,57,47,52,45,41,84,66,42,29.93,29.85,29.74,10,10,4,15,7,20,0.00,3,Rain,59
2012-10-2,81,68,56,66,58,51,87,75,52,29.90,29.77,29.71,10,8,2,13,7,,0.00,7,Rain,65
2012-10-3,72,66,59,59,52,47,89,67,41,30.15,30.05,29.89,10,8,0,17,6,25,0.00,5,Fog,201
2012-10-4,79,66,52,53,49,42,87,61,28,30.21,30.16,30.13,10,9,2,23,6,30,0.00,1,,210
2012-10-5,77,64,49,54,51,43,82,64,36,30.15,30.06,29.94,10,10,7,16,8,21,0.00,3,Rain,231
2012-10-6,60,51,42,43,33,21,84,56,23,30.13,30.06,29.97,10,9,3,15,9,20,0.00,3,Rain,299
2012-10-7,51,48,45,37,32,28,64,55,45,30.18,30.13,30.08,10,10,10,14,6,17,0.00,8,Rain,297
2012-10-8,55,46,36,36,32,27,86,64,37,30.26,30.21,30.16,10,10,5,12,2,,0.00,2,,170
2012-10-9,61,46,32,43,33,28,92,66,28,30.20,30.11,29.98,10,7,0,14,3,18,0.00,2,Fog,179
2012-10-10,59,50,37,43,33,23,80,58,25,30.23,30.04,29.92,10,10,10,22,9,30,0.00,3,Rain,250
2012-10-11,62,47,32,32,26,18,83,53,18,30.31,30.23,30.15,10,10,10,13,4,17,0.00,0,,204
2012-10-12,59,50,39,37,28,17,74,48,19,30.39,30.31,30.18,10,10,10,17,6,22,0.00,2,Rain,53
2012-10-13,72,54,35,50,36,26,77,51,30,30.37,30.21,30.03,10,10,10,16,6,20,0.00,2,,145
2012-10-14,79,71,63,57,53,49,71,57,35,30.03,29.88,29.70,10,10,7,32,14,43,0.00,6,Rain,190
2012-10-15,67,57,47,56,44,37,83,64,48,29.95,29.85,29.73,10,10,5,23,12,30,0.00,7,Rain,273
2012-10-16,64,49,34,40,34,29,91,59,27,30.02,29.94,29.83,10,8,0,10,3,,0.00,0,Fog,196
2012-10-17,75,62,49,45,39,35,60,44,23,29.85,29.77,29.63,10,10,10,18,6,26,0.00,3,,163
2012-10-18,65,56,47,50,34,16,78,42,16,29.75,29.65,29.53,10,10,10,22,13,32,0.00,3,Rain-Thunderstorm,190
2012-10-19,60,54,47,44,40,30,83,64,31,29.71,29.65,29.57,10,10,7,20,10,28,0.00,7,Rain,182
2012-10-20,57,52,45,44,40,35,84,70,44,29.98,29.82,29.70,10,10,3,17,9,21,0.00,8,Rain,235
2012-10-21,63,50,36,43,38,33,90,68,36,30.16,30.10,30.00,10,7,0,10,3,,0.00,1,Fog,176
2012-10-22,79,60,42,49,43,38,84,57,26,30.16,30.11,30.04,10,10,7,16,3,20,0.00,2,,192
2012-10-23,80,68,57,51,44,36,77,44,21,30.08,30.04,29.99,10,10,7,20,8,26,0.00,3,Rain-Thunderstorm,209
2012-10-24,81,70,58,55,48,41,81,53,24,30.14,30.08,30.04,10,10,5,14,6,20,0.00,3,Rain,194
2012-10-25,81,65,49,49,45,40,83,52,23,30.09,30.02,29.97,10,10,10,15,3,23,0.00,0,,191
2012-10-26,60,54,49,52,45,42,84,69,56,30.13,30.07,29.98,10,10,3,18,8,23,0.00,5,Rain,330
2012-10-27,52,49,46,46,42,37,86,75,60,30.10,30.06,30.01,10,8,4,21,12,26,0.00,8,Rain,357
2012-10-28,48,44,40,40,37,33,82,72,55,30.08,30.00,29.95,10,10,7,24,15,32,0.00,8,Rain,352
2012-10-29,41,39,37,35,34,32,83,79,75,29.98,29.85,29.57,10,10,7,26,17,38,0.00,8,Rain,331
2012-10-30,41,37,34,36,33,31,87,81,77,29.55,29.44,29.36,10,7,0,28,22,41,0.00,8,Rain-Snow,306
2012-10-31,43,41,39,37,35,34,84,80,71,29.75,29.65,29.55,10,8,2,17,12,24,0.00,8,Rain,276